Trenton, NJ

1:39 PM EDT on October 21, 2017 (GMT -0400)
Trenton Mercer

Weather History for KTTN - March, 2013

Change the Weather History Date:

Saturday, March 30, 2013

  Actual Average Record
Temperature  
Mean Temperature 46 °F 46 °F  
Max Temperature 58 °F 56 °F 87 °F (1998)
Min Temperature 33 °F 36 °F 20 °F (1970)
Degree Days  
Heating Degree Days 19 19  
Month to date heating degree days 766 713  
Since 1 July heating degree days 4367 4527  
Cooling Degree Days 0 0  
Month to date cooling degree days 0 0  
Year to date cooling degree days 0 0  
Moisture  
Dew Point 25 °F    
Average Humidity 50    
Maximum Humidity 75    
Minimum Humidity 24    
Precipitation  
Precipitation 0.00 in 0.15 in 1.75 in (2010)
Month to date precipitation 2.37 3.98  
Year to date precipitation 6.99 9.45  
Sea Level Pressure  
Sea Level Pressure 30.13 in    
Wind  
Wind Speed 5 mph (WNW)    
Max Wind Speed 14 mph    
Max Gust Speed 20 mph    
Visibility 10 miles    
Events      
T = Trace of Precipitation, MM = Missing Value Source: NWS Daily Summary

Daily Weather History Graph

Daily Weather History Graph

Search for Another Location

Airport or City:

Trip Planner

Search our weather history database for the weather conditions in past years. The results will help you decide how hot, cold, wet, or windy it might be!

Date:

Astronomy

Mar. 30, 2013 Rise Set
Actual Time 6:45 AM EDT 7:21 PM EDT
Civil Twilight 6:18 AM EDT 7:49 PM EDT
Nautical Twilight 5:46 AM EDT 8:21 PM EDT
Astronomical Twilight 5:13 AM EDT 8:54 PM EDT
Moon 11:26 PM EDT (3/30) 8:38 AM EDT (3/30)
Length of Visible Light 13h 30m
Length of Day
12h 35m
Waning Gibbous, 86% of the Moon is Illuminated
Mar 30
Waning Gibbous
Apr 3
Last Quarter
Apr 10
New
Apr 18
First Quarter
Apr 25
Full

Hourly Weather History & Observations

Time (EDT) Temp. Windchill Dew Point Humidity Pressure Visibility Wind Dir Wind Speed Gust Speed Precip Events Conditions
12:53 AM 42.1 °F 39.2 °F 28.9 °F 60% 30.14 in 10.0 mi NW 4.6 mph - N/A   Clear
1:53 AM 39.0 °F - 28.0 °F 65% 30.14 in 10.0 mi Calm Calm - N/A   Clear
2:53 AM 36.0 °F - 28.0 °F 73% 30.14 in 10.0 mi Calm Calm - N/A   Clear
3:53 AM 35.1 °F 32.2 °F 28.0 °F 76% 30.14 in 10.0 mi NW 3.5 mph - N/A   Clear
4:53 AM 35.1 °F - 27.0 °F 72% 30.14 in 10.0 mi Calm Calm - N/A   Clear
5:53 AM 34.0 °F 29.8 °F 27.0 °F 75% 30.14 in 10.0 mi NW 4.6 mph - N/A   Clear
6:53 AM 34.0 °F 29.8 °F 27.0 °F 75% 30.15 in 10.0 mi NW 4.6 mph - N/A   Clear
7:53 AM 37.9 °F 35.5 °F 28.0 °F 68% 30.17 in 10.0 mi NW 3.5 mph - N/A   Clear
8:53 AM 42.1 °F 37.1 °F 28.0 °F 58% 30.18 in 10.0 mi NW 8.1 mph - N/A   Clear
9:53 AM 48.0 °F - 28.9 °F 48% 30.18 in 10.0 mi North 6.9 mph - N/A   Clear
10:53 AM 51.1 °F - 28.0 °F 41% 30.17 in 10.0 mi NW 4.6 mph - N/A   Clear
11:53 AM 52.0 °F - 25.0 °F 35% 30.16 in 10.0 mi NNW 10.4 mph - N/A   Clear
12:53 PM 54.0 °F - 23.0 °F 30% 30.14 in 10.0 mi WNW 11.5 mph 18.4 mph N/A   Partly Cloudy
1:53 PM 55.9 °F - 21.0 °F 26% 30.11 in 10.0 mi West 12.7 mph 17.3 mph N/A   Scattered Clouds
2:53 PM 55.0 °F - 21.0 °F 27% 30.09 in 10.0 mi Variable 4.6 mph - N/A   Mostly Cloudy
3:53 PM 57.9 °F - 21.0 °F 24% 30.08 in 10.0 mi WNW 9.2 mph - N/A   Overcast
4:53 PM 57.0 °F - 21.0 °F 25% 30.07 in 10.0 mi WNW 11.5 mph - N/A   Partly Cloudy
5:53 PM 55.9 °F - 19.9 °F 25% 30.07 in 10.0 mi West 8.1 mph - N/A   Scattered Clouds
6:53 PM 55.0 °F - 21.0 °F 27% 30.08 in 10.0 mi West 4.6 mph - N/A   Clear
7:53 PM 52.0 °F - 21.0 °F 30% 30.09 in 10.0 mi West 3.5 mph - N/A   Clear
8:53 PM 50.0 °F - 21.0 °F 32% 30.10 in 10.0 mi West 3.5 mph - N/A   Clear
9:53 PM 48.9 °F - 21.9 °F 35% 30.11 in 10.0 mi West 3.5 mph - N/A   Clear
10:53 PM 46.0 °F - 23.0 °F 40% 30.12 in 10.0 mi Calm Calm - N/A   Clear
11:53 PM 44.1 °F 41.5 °F 24.1 °F 45% 30.12 in 10.0 mi SW 4.6 mph - N/A   Clear